Home   Weather   Guatemala   Past weeks

Flag for Guatemala Past Weather in Guatemala, Guatemala — Yesterday and Last 2 Weeks

Now
72 °F

Scattered clouds.


Feels Like: 74 °F
Forecast: 62 / 75 °F
Wind: 9 mph from Northeast

Location: Guatemala Aeropuertola Aurora

Current Time: Sep 28, 2016 at 11:10:19 AM

Latest Report: Sep 28, 2016 at 10:00 AM


Visibility: N/A

Pressure: 30.33 "Hg (25.40 "Hg at 1533m altitude)

Humidity: 73%

Dew Point: 63 °F

Location of GuatemalaLocation

Past Weather in Guatemala — Graph

°F

Guatemala Temperature Yesterday

Maximum temperature yesterday: 75 °F (at 10:00 AM)
Minimum temperature yesterday: 63 °F (at 8:00 PM)
Average temperature yesterday: 66 °F

High & Low Weather Summary for the Past Weeks

 TemperatureHumidityPressure
High79 °F (Sep 17, 2:00 PM)100% (Sep 14, 8:00 PM)30.33 "Hg (Sep 14, 8:00 PM)
Low59 °F (Sep 25, 6:00 AM)57% (Sep 17, 3:00 PM)30.15 "Hg (Sep 22, 3:00 PM)
Average67 °F85%30.26 "Hg
* Reported Sep 13 10:00 AM — Sep 28 10:00 AM, Guatemala, Weather by CustomWeather, © 2016

Note: Actual official high and low records may vary slightly from our data, if they occured in-between our weather recording intervals... More about our weather records

Advertising

Guatemala Weather History for the Previous 24 Hours

Scroll right to see more
 ConditionsComfort  
Time TempWeatherWind HumidityBarometerVisibility
10:00 AM
Wed, Sep 28
72 °FScattered clouds.9 mph73%30.33 "HgN/A
9:00 AM68 °FScattered clouds.7 mph83%30.33 "HgN/A
8:00 AM66 °FPartly sunny.5 mph94%30.30 "Hg5 mi
7:00 AM63 °FFog.No wind94%30.30 "Hg3 mi
6:00 AM63 °FPartly sunny.5 mph94%30.30 "Hg5 mi
5:00 AM63 °FPassing clouds.No wind94%30.27 "HgN/A
4:00 AM63 °FPassing clouds.No wind94%30.27 "HgN/A
3:00 AM63 °FPassing clouds.No wind94%30.27 "HgN/A
2:00 AM64 °FPassing clouds.No wind94%30.27 "HgN/A
1:00 AM63 °FPassing clouds.No wind94%30.30 "HgN/A
12:00 AM63 °FPassing clouds.No wind94%30.30 "HgN/A
11:00 PM
Tue, Sep 27
63 °FPartly cloudy.No wind94%30.33 "HgN/A
10:00 PM63 °FPassing clouds.No wind83%30.30 "HgN/A
9:00 PM63 °FPassing clouds.No wind88%30.30 "HgN/A
8:00 PM63 °FPassing clouds.No wind94%30.27 "HgN/A
7:00 PM64 °FPassing clouds.No wind94%30.24 "HgN/A
6:00 PM64 °FPartly cloudy.No wind94%30.21 "HgN/A
5:00 PM66 °FDrizzle. Mostly cloudy.No wind94%30.18 "HgN/A
4:00 PM66 °FThunderstorms. More clouds than sun.No wind94%30.18 "Hg5 mi
3:00 PM66 °FThunderstorms. More clouds than sun.No wind88%30.18 "HgN/A
2:00 PM66 °FThunderstorms. Broken clouds.6 mph94%30.18 "HgN/A
1:00 PM73 °FThunderstorms. Broken clouds.3 mph69%30.21 "HgN/A
12:00 PM73 °FBroken clouds.9 mph74%30.21 "HgN/A
11:00 AM73 °FBroken clouds.12 mph69%30.24 "HgN/A
Weather by CustomWeather, © 2016

See weather overviewHow to use our weather pages